Weather History for Cork Airport, Ireland

Change the Weather History Date:

Saturday, January 25, 2014

  Actual Average Record
Temperature  
Mean Temperature 44 °F -  
Max Temperature 50 °F 46 °F - ()
Min Temperature 38 °F 37 °F - ()
Degree Days  
Heating Degree Days 21    
Moisture  
Dew Point 41 °F    
Average Humidity 85    
Maximum Humidity 100    
Minimum Humidity 53    
Precipitation  
Precipitation 0.04 in 0.16 in - ()
Sea Level Pressure  
Sea Level Pressure 29.94 in    
Wind  
Wind Speed 13 mph ()    
Max Wind Speed 34 mph    
Max Gust Speed 50 mph    
Visibility 8.6 miles    
Events Rain    
T = Trace of Precipitation, MM = Missing Value Source: Averaged Metar Reports

Daily Weather History Graph

Daily Weather History Graph

Search for Another Location

Airport:

Trip Planner

Search our weather history database for the weather conditions in past years. The results will help you decide how hot, cold, wet, or windy it might be!

Date:

Astronomy

Jan. 25, 2014 Rise Set
Actual Time 8:23 AM GMT 5:09 PM GMT
Civil Twilight 7:46 AM GMT 5:47 PM GMT
Nautical Twilight 7:04 AM GMT 6:28 PM GMT
Astronomical Twilight 6:25 AM GMT 7:07 PM GMT
Moon 2:36 AM GMT (1/25) 12:02 PM GMT (1/25)
Length of Visible Light 10h 00m
Length of Day
8h 45m
Last Quarter, 36% of the Moon is Illuminated
Jan 25
Last Quarter
Jan 30
New
Feb 6
First Quarter
Feb 14
Full
Feb 22
Last Quarter

Hourly Weather History & Observations

Time (GMT) Temp. Windchill Dew Point Humidity Pressure Visibility Wind Dir Wind Speed Gust Speed Precip Events Conditions
12:00 AM 45 °F - 43 °F 91% 29.92 in 14 mi WSW 8.9 mph - -   Scattered Clouds
12:00 AM 44.6 °F 39.7 °F 42.8 °F 93% 29.89 in 6.2 mi WSW 9.2 mph - N/A   Scattered Clouds
12:30 AM 44.6 °F 40.2 °F 42.8 °F 93% 29.89 in 6.2 mi SW 8.1 mph - N/A   Mostly Cloudy
1:00 AM 43 °F - 42 °F 92% 29.94 in 14 mi SW 6.7 mph - -   Scattered Clouds
1:00 AM 42.8 °F 38.6 °F 41.0 °F 93% 29.92 in 6.2 mi SW 6.9 mph - N/A   Scattered Clouds
1:30 AM 42.8 °F 39.3 °F 41.0 °F 93% 29.92 in 6.2 mi SW 5.8 mph - N/A   Partly Cloudy
2:00 AM 45 °F - 44 °F 93% 29.94 in 12 mi WSW 11.2 mph - -   Scattered Clouds
2:00 AM 44.6 °F 38.8 °F 44.6 °F 100% 29.92 in 6.2 mi WSW 11.5 mph - N/A   Partly Cloudy
2:30 AM 46.4 °F 42.9 °F 42.8 °F 87% 29.92 in 6.2 mi WSW 6.9 mph - N/A   Partly Cloudy
3:00 AM 42 °F - 41 °F 94% 29.95 in 12 mi SW 8.9 mph - -   Scattered Clouds
3:00 AM 42.8 °F 37.5 °F 41.0 °F 93% 29.92 in 6.2 mi SW 9.2 mph - N/A   Partly Cloudy
3:30 AM 42.8 °F 37.0 °F 42.8 °F 100% 29.92 in 6.2 mi SW 10.4 mph - N/A   Partly Cloudy
4:00 AM 42 °F - 42 °F 99% 29.93 in 12 mi SW 11.2 mph - -   Scattered Clouds
4:00 AM 42.8 °F 36.6 °F 41.0 °F 93% 29.89 in 6.2 mi SW 11.5 mph - N/A   Partly Cloudy
4:30 AM 44.6 °F 37.8 °F 44.6 °F 100% 29.89 in 6.2 mi SW 15.0 mph - N/A   Partly Cloudy
5:00 AM 44 °F - 44 °F 97% 29.93 in 12 mi SW 15.7 mph - -   Scattered Clouds
5:00 AM 44.6 °F 37.8 °F 42.8 °F 93% 29.89 in 6.2 mi SW 15.0 mph - N/A   Partly Cloudy
5:30 AM 46.4 °F 40.4 °F 44.6 °F 93% 29.92 in 6.2 mi SW 13.8 mph - N/A   Scattered Clouds
6:00 AM 45 °F - 44 °F 94% 29.93 in 12 mi SSW 6.7 mph - -   Mostly Cloudy
6:00 AM 44.6 °F 40.7 °F 44.6 °F 100% 29.92 in 6.2 mi SSW 6.9 mph - N/A   Mostly Cloudy
6:30 AM 46.4 °F 40.1 °F 44.6 °F 93% 29.89 in 6.2 mi SW 15.0 mph - N/A   Scattered Clouds
7:00 AM 46 °F - 45 °F 93% 29.92 in 12 mi WSW 13.4 mph - -   Partly Cloudy
7:00 AM 46.4 °F 40.4 °F 44.6 °F 93% 29.89 in 6.2 mi WSW 13.8 mph - N/A   Scattered Clouds
7:30 AM 46.4 °F 40.1 °F 44.6 °F 93% 29.89 in 6.2 mi SW 15.0 mph - N/A   Scattered Clouds
8:00 AM 47 °F - 45 °F 91% 29.89 in 11 mi SW 15.7 mph - -   Mostly Cloudy
8:00 AM 46.4 °F 40.1 °F 44.6 °F 93% 29.86 in 6.2 mi SW 15.0 mph - N/A   Mostly Cloudy
8:30 AM 46.4 °F 39.8 °F 44.6 °F 93% 29.86 in 6.2 mi WSW 16.1 mph - N/A   Mostly Cloudy
9:00 AM 48 °F - 46 °F 89% 29.88 in 11 mi WSW 20.1 mph - -   Partly Cloudy
9:00 AM 48.2 °F - 46.4 °F 93% 29.86 in 6.2 mi WSW 20.7 mph 35.7 mph N/A   Scattered Clouds
9:30 AM 48.2 °F - 46.4 °F 93% 29.86 in 6.2 mi WSW 24.2 mph - N/A   Scattered Clouds
10:00 AM 49 °F - 46 °F 83% 29.83 in 11 mi WSW 26.8 mph - -   Scattered Clouds
10:00 AM 50.0 °F - 46.4 °F 87% 29.80 in 6.2 mi WSW 26.5 mph 38.0 mph N/A   Scattered Clouds
10:30 AM 50.0 °F - 46.4 °F 87% 29.83 in 6.2 mi WSW 24.2 mph 39.1 mph N/A   Scattered Clouds
11:00 AM 50 °F - 42 °F 67% 29.87 in 12 mi West 29.1 mph - -   Mostly Cloudy
11:00 AM 50.0 °F - 42.8 °F 76% 29.86 in 6.2 mi West 28.8 mph 42.6 mph N/A   Scattered Clouds
11:30 AM 50.0 °F - 41.0 °F 71% 29.83 in 6.2 mi WSW 29.9 mph 46.0 mph N/A   Mostly Cloudy
12:00 PM 50 °F - 42 °F 67% 29.86 in 12 mi West 26.8 mph - - Rain Light Rain Showers
12:00 PM 50.0 °F - 42.8 °F 76% 29.83 in 6.2 mi West 27.6 mph 40.3 mph N/A Rain Light Rain Showers
12:30 PM 50.0 °F - 39.2 °F 66% 29.86 in 6.2 mi West 34.5 mph 49.5 mph N/A   Scattered Clouds
1:00 PM 49 °F - 37 °F 53% 29.91 in 12 mi West 31.3 mph - - Rain Light Rain Showers
1:00 PM 48.2 °F - 37.4 °F 66% 29.89 in 6.2 mi West 32.2 mph 44.9 mph N/A   Scattered Clouds
1:30 PM 48.2 °F - 35.6 °F 62% 29.92 in 6.2 mi West 29.9 mph 43.7 mph N/A   Mostly Cloudy
2:00 PM 46 °F - 38 °F 64% 29.94 in 12 mi West 31.3 mph - - Rain Light Rain Showers
2:00 PM 46.4 °F 36.9 °F 37.4 °F 71% 29.92 in 6.2 mi West 32.2 mph 47.2 mph N/A Rain Light Rain Showers
2:30 PM 44.6 °F 37.2 °F 41.0 °F 87% 29.92 in 6.2 mi West 17.3 mph - N/A Rain Light Rain Showers
3:00 PM 44 °F - 38 °F 74% 29.96 in 16 mi West 26.8 mph - - Rain Light Rain Showers
3:00 PM 44.6 °F 35.3 °F 39.2 °F 81% 29.95 in 6.2 mi West 26.5 mph 43.7 mph N/A   Scattered Clouds
3:30 PM 44.6 °F 36.6 °F 39.2 °F 81% 29.98 in 6.2 mi West 19.6 mph - N/A   Mostly Cloudy
4:00 PM 44 °F - 39 °F 76% 30.01 in 16 mi West 24.6 mph - - Rain Light Rain Showers
4:00 PM 44.6 °F 35.7 °F 39.2 °F 81% 29.98 in 6.2 mi West 24.2 mph 35.7 mph N/A   Scattered Clouds
4:30 PM 42.8 °F 35.4 °F 39.2 °F 87% 29.98 in 6.2 mi West 15.0 mph - N/A Rain Light Rain Showers
5:00 PM 43 °F - 38 °F 77% 30.04 in 16 mi WNW 17.9 mph - - Rain Light Rain Showers
5:00 PM 42.8 °F 34.5 °F 37.4 °F 81% 30.01 in 6.2 mi WNW 18.4 mph - N/A Rain Light Rain Showers
5:30 PM 42.8 °F 34.8 °F 37.4 °F 81% 30.01 in 6.2 mi NW 17.3 mph - N/A   Scattered Clouds
6:00 PM 42 °F - 37 °F 77% 30.04 in 16 mi NW 11.2 mph - - Rain Light Rain Showers
6:00 PM 42.8 °F 36.6 °F 37.4 °F 81% 30.01 in 6.2 mi NW 11.5 mph - N/A   Mostly Cloudy
6:30 PM 39.2 °F 33.6 °F 35.6 °F 87% 30.04 in 6.2 mi SW 8.1 mph - N/A   Scattered Clouds
7:00 PM 43 °F - 36 °F 67% 30.05 in 16 mi WNW 13.4 mph - -   Mostly Cloudy
7:00 PM 42.8 °F 35.8 °F 35.6 °F 76% 30.01 in 6.2 mi WNW 13.8 mph - N/A   Mostly Cloudy
7:30 PM 41.0 °F 35.8 °F 33.8 °F 76% 30.04 in 6.2 mi SW 8.1 mph - N/A   Mostly Cloudy
8:00 PM 38 °F - 33 °F 77% 30.07 in 16 mi WSW 6.7 mph - -   Mostly Cloudy
8:00 PM 39.2 °F 35.0 °F 33.8 °F 81% 30.04 in 6.2 mi WSW 5.8 mph - N/A   Mostly Cloudy
8:30 PM 39.2 °F 35.0 °F 33.8 °F 81% 30.04 in 6.2 mi SW 5.8 mph - N/A   Mostly Cloudy
9:00 PM 39 °F - 35 °F 82% 30.04 in 16 mi SSW 6.7 mph - -   Scattered Clouds
9:00 PM 39.2 °F 34.2 °F 35.6 °F 87% 30.01 in 6.2 mi SSW 6.9 mph - N/A   Mostly Cloudy
9:30 PM 39.2 °F 33.6 °F 37.4 °F 93% 29.98 in 6.2 mi SSW 8.1 mph - N/A   Mostly Cloudy
10:00 PM 41 °F - 38 °F 83% 30.02 in 16 mi SSW 6.7 mph - -   Scattered Clouds
10:00 PM 41.0 °F 36.4 °F 37.4 °F 87% 29.98 in 6.2 mi SSW 6.9 mph - N/A   Mostly Cloudy
10:30 PM 41.0 °F 36.4 °F 39.2 °F 93% 29.98 in 6.2 mi SW 6.9 mph - N/A   Mostly Cloudy
11:00 PM 43 °F - 40 °F 84% 30.01 in 16 mi SW 8.9 mph - -   Mostly Cloudy
11:00 PM 42.8 °F 37.5 °F 39.2 °F 87% 29.98 in 6.2 mi SW 9.2 mph - N/A   Mostly Cloudy
11:30 PM 42.8 °F 38.6 °F 41.0 °F 93% 29.95 in 6.2 mi SSW 6.9 mph - N/A   Mostly Cloudy